This is the latest recevied weather packets stored in our database for station/object KG7KID-7. If no packets are shown the sender has not sent any weather packets the latest 10 day(s).
| Time | Temp. | Humidity | Pressure | Rain* | Wind** | Luminosity | Snow |
|---|---|---|---|---|---|---|---|
| 1778013654 | 20° C | 30% | 972.8 hPa | 0 mm | - | - | - |
| 1778013054 | 20° C | 34% | 972.9 hPa | 0 mm | - | - | - |
| 1778012810 | 19.44° C | 32% | 972.9 hPa | 0 mm | - | - | - |
| 1778012754 | 19.44° C | 32% | 972.9 hPa | 0 mm | - | - | - |
| 1778012154 | 19.44° C | 35% | 973 hPa | 0 mm | - | - | - |
| 1778011854 | 18.89° C | 36% | 973.1 hPa | 0 mm | - | - | - |
| 1778011408 | 18.89° C | 39% | 973 hPa | 0 mm | - | - | - |
| 1778011251 | 18.89° C | 39% | 973 hPa | 0 mm | - | - | - |
| 1778010344 | 18.33° C | 46% | 973.3 hPa | 0 mm | - | - | - |
| 1778009278 | 18.33° C | 49% | 973.6 hPa | 0 mm | - | - | - |
| 1778009079 | 18.33° C | 49% | 973.6 hPa | 0 mm | - | - | - |
| 1778009012 | 18.33° C | 50% | 974.5 hPa | 0 mm | - | - | - |
| 1778008779 | 18.33° C | 50% | 974.5 hPa | 0 mm | - | - | - |
| 1778008479 | 17.78° C | 57% | 974.6 hPa | 0 mm | - | - | - |
| 1778008406 | 17.78° C | 57% | 974.7 hPa | 0 mm | - | - | - |
| 1778008179 | 17.78° C | 57% | 974.7 hPa | 0 mm | - | - | - |
| 1778008078 | 17.22° C | 57% | 974.9 hPa | 0 mm | - | - | - |
| 1778007881 | 17.22° C | 57% | 974.9 hPa | 0 mm | - | - | - |
| 1778007740 | 17.22° C | 60% | 974.9 hPa | 0 mm | - | - | - |
| 1778007579 | 17.22° C | 60% | 974.9 hPa | 0 mm | - | - | - |
| 1778007492 | 17.22° C | 60% | 975 hPa | 0 mm | - | - | - |
| 1778007280 | 17.22° C | 60% | 975 hPa | 0 mm | - | - | - |
| 1778007208 | 17.22° C | 62% | 975.1 hPa | 0 mm | - | - | - |
| 1778006979 | 17.22° C | 62% | 975.1 hPa | 0 mm | - | - | - |
| 1778006838 | 16.67° C | 64% | 975 hPa | 0 mm | - | - | - |
* Rain latest hour (hover to see other rain measurements)
** Current wind speed in m/s (hover to see current wind gust speed)